owner,sensor,date,latitude,longitude,sea_surface_height_above_sea_level,qcFlag 
COMPS,ioos:station:USF.COMPS:ANC:1,2010-01-01T00:00:00Z,28.1930,-82.7890,0.034,1111122 
COMPS,ioos:station:USF.COMPS:ANC:1,2010-01-01T00:06:00Z,28.1930,-82.7890,0.042,1111122 
COMPS,ioos:station:USF.COMPS:ANC:1,2010-01-01T00:12:00Z,28.1930,-82.7890,0.06,1111122 
COMPS,ioos:station:USF.COMPS:ANC:1,2010-01-01T00:18:00Z,28.1930,-82.7890,0.076,1111122 
COMPS,ioos:station:USF.COMPS:ANC:1,2010-01-01T00:24:00Z,28.1930,-82.7890,0.089,1111122 
COMPS,ioos:station:USF.COMPS:ANC:1,2010-01-01T00:30:00Z,28.1930,-82.7890,0.116,1111122 
COMPS,ioos:station:USF.COMPS:ANC:1,2010-01-01T00:36:00Z,28.1930,-82.7890,0.14,1111122 
COMPS,ioos:station:USF.COMPS:ANC:1,2010-01-01T00:42:00Z,28.1930,-82.7890,0.163,1111122 
COMPS,ioos:station:USF.COMPS:ANC:1,2010-01-01T00:48:00Z,28.1930,-82.7890,0.182,1111122 
COMPS,ioos:station:USF.COMPS:ANC:1,2010-01-01T00:54:00Z,28.1930,-82.7890,0.205,1111122 
COMPS,ioos:station:USF.COMPS:ANC:1,2010-01-01T01:00:00Z,28.1930,-82.7890,0.222,1111122 
COMPS,ioos:station:USF.COMPS:ANC:1,2010-01-01T01:06:00Z,28.1930,-82.7890,0.242,1111122 
COMPS,ioos:station:USF.COMPS:ANC:1,2010-01-01T01:12:00Z,28.1930,-82.7890,0.279,1111122 
COMPS,ioos:station:USF.COMPS:ANC:1,2010-01-01T01:18:00Z,28.1930,-82.7890,0.294,1111122 
COMPS,ioos:station:USF.COMPS:ANC:1,2010-01-01T01:24:00Z,28.1930,-82.7890,0.317,1111122 
COMPS,ioos:station:USF.COMPS:ANC:1,2010-01-01T01:30:00Z,28.1930,-82.7890,0.346,1111122 
COMPS,ioos:station:USF.COMPS:ANC:1,2010-01-01T01:36:00Z,28.1930,-82.7890,0.369,1111122 
COMPS,ioos:station:USF.COMPS:ANC:1,2010-01-01T01:42:00Z,28.1930,-82.7890,0.386,1111122 
COMPS,ioos:station:USF.COMPS:ANC:1,2010-01-01T01:48:00Z,28.1930,-82.7890,0.417,1111122 
COMPS,ioos:station:USF.COMPS:ANC:1,2010-01-01T01:54:00Z,28.1930,-82.7890,0.44,1111122 
COMPS,ioos:station:USF.COMPS:ANC:1,2010-01-01T02:00:00Z,28.1930,-82.7890,0.464,1111122 
COMPS,ioos:station:USF.COMPS:ANC:1,2010-01-01T02:06:00Z,28.1930,-82.7890,0.494,1111122 
COMPS,ioos:station:USF.COMPS:ANC:1,2010-01-01T02:12:00Z,28.1930,-82.7890,0.509,1111122 
COMPS,ioos:station:USF.COMPS:ANC:1,2010-01-01T02:18:00Z,28.1930,-82.7890,0.526,1111122 
COMPS,ioos:station:USF.COMPS:ANC:1,2010-01-01T02:24:00Z,28.1930,-82.7890,0.542,1111122 
COMPS,ioos:station:USF.COMPS:ANC:1,2010-01-01T02:30:00Z,28.1930,-82.7890,0.557,1111122 
COMPS,ioos:station:USF.COMPS:ANC:1,2010-01-01T02:36:00Z,28.1930,-82.7890,0.578,1111122 
COMPS,ioos:station:USF.COMPS:ANC:1,2010-01-01T02:42:00Z,28.1930,-82.7890,0.602,1111122 
COMPS,ioos:station:USF.COMPS:ANC:1,2010-01-01T02:48:00Z,28.1930,-82.7890,0.614,1111122 
COMPS,ioos:station:USF.COMPS:ANC:1,2010-01-01T02:54:00Z,28.1930,-82.7890,0.627,1111122 
COMPS,ioos:station:USF.COMPS:ANC:1,2010-01-01T03:00:00Z,28.1930,-82.7890,0.643,1111122 
COMPS,ioos:station:USF.COMPS:ANC:1,2010-01-01T03:06:00Z,28.1930,-82.7890,0.657,1111122 
COMPS,ioos:station:USF.COMPS:ANC:1,2010-01-01T03:12:00Z,28.1930,-82.7890,0.674,1111122 
COMPS,ioos:station:USF.COMPS:ANC:1,2010-01-01T03:18:00Z,28.1930,-82.7890,0.694,1111122 
COMPS,ioos:station:USF.COMPS:ANC:1,2010-01-01T03:24:00Z,28.1930,-82.7890,0.701,1111122 
COMPS,ioos:station:USF.COMPS:ANC:1,2010-01-01T03:30:00Z,28.1930,-82.7890,0.715,1111122 
COMPS,ioos:station:USF.COMPS:ANC:1,2010-01-01T03:36:00Z,28.1930,-82.7890,0.725,1111122 
COMPS,ioos:station:USF.COMPS:ANC:1,2010-01-01T03:42:00Z,28.1930,-82.7890,0.727,1111122 
COMPS,ioos:station:USF.COMPS:ANC:1,2010-01-01T03:48:00Z,28.1930,-82.7890,0.735,1111122 
COMPS,ioos:station:USF.COMPS:ANC:1,2010-01-01T03:54:00Z,28.1930,-82.7890,0.741,1111122 
COMPS,ioos:station:USF.COMPS:ANC:1,2010-01-01T04:00:00Z,28.1930,-82.7890,0.734,1111122 
COMPS,ioos:station:USF.COMPS:ANC:1,2010-01-01T04:06:00Z,28.1930,-82.7890,0.748,1111122 
COMPS,ioos:station:USF.COMPS:ANC:1,2010-01-01T04:12:00Z,28.1930,-82.7890,0.752,1111122 
COMPS,ioos:station:USF.COMPS:ANC:1,2010-01-01T04:18:00Z,28.1930,-82.7890,0.737,1111122 
COMPS,ioos:station:USF.COMPS:ANC:1,2010-01-01T04:24:00Z,28.1930,-82.7890,0.739,1111122 
COMPS,ioos:station:USF.COMPS:ANC:1,2010-01-01T04:30:00Z,28.1930,-82.7890,0.726,1111122 
COMPS,ioos:station:USF.COMPS:ANC:1,2010-01-01T04:36:00Z,28.1930,-82.7890,0.717,1111122 
COMPS,ioos:station:USF.COMPS:ANC:1,2010-01-01T04:42:00Z,28.1930,-82.7890,0.718,1111122 
COMPS,ioos:station:USF.COMPS:ANC:1,2010-01-01T04:48:00Z,28.1930,-82.7890,0.702,1111122 
COMPS,ioos:station:USF.COMPS:ANC:1,2010-01-01T04:54:00Z,28.1930,-82.7890,0.693,1111122 
COMPS,ioos:station:USF.COMPS:ANC:1,2010-01-01T05:00:00Z,28.1930,-82.7890,0.681,1111122 
COMPS,ioos:station:USF.COMPS:ANC:1,2010-01-01T05:06:00Z,28.1930,-82.7890,0.67,1111122 
COMPS,ioos:station:USF.COMPS:ANC:1,2010-01-01T05:12:00Z,28.1930,-82.7890,0.658,1111122 
COMPS,ioos:station:USF.COMPS:ANC:1,2010-01-01T05:18:00Z,28.1930,-82.7890,0.643,1111122 
COMPS,ioos:station:USF.COMPS:ANC:1,2010-01-01T05:24:00Z,28.1930,-82.7890,0.627,1111122 
COMPS,ioos:station:USF.COMPS:ANC:1,2010-01-01T05:30:00Z,28.1930,-82.7890,0.611,1111122 
COMPS,ioos:station:USF.COMPS:ANC:1,2010-01-01T05:36:00Z,28.1930,-82.7890,0.592,1111122 
COMPS,ioos:station:USF.COMPS:ANC:1,2010-01-01T05:42:00Z,28.1930,-82.7890,0.567,1111122 
COMPS,ioos:station:USF.COMPS:ANC:1,2010-01-01T05:48:00Z,28.1930,-82.7890,0.551,1111122 
COMPS,ioos:station:USF.COMPS:ANC:1,2010-01-01T05:54:00Z,28.1930,-82.7890,0.531,1111122 
COMPS,ioos:station:USF.COMPS:ANC:1,2010-01-01T06:00:00Z,28.1930,-82.7890,0.508,1111122 
COMPS,ioos:station:USF.COMPS:ANC:1,2010-01-01T06:06:00Z,28.1930,-82.7890,0.491,1111122 
COMPS,ioos:station:USF.COMPS:ANC:1,2010-01-01T06:12:00Z,28.1930,-82.7890,0.468,1111122 
COMPS,ioos:station:USF.COMPS:ANC:1,2010-01-01T06:18:00Z,28.1930,-82.7890,0.444,1111122 
COMPS,ioos:station:USF.COMPS:ANC:1,2010-01-01T06:24:00Z,28.1930,-82.7890,0.421,1111122 
COMPS,ioos:station:USF.COMPS:ANC:1,2010-01-01T06:30:00Z,28.1930,-82.7890,0.406,1111122 
COMPS,ioos:station:USF.COMPS:ANC:1,2010-01-01T06:36:00Z,28.1930,-82.7890,0.384,1111122 
COMPS,ioos:station:USF.COMPS:ANC:1,2010-01-01T06:42:00Z,28.1930,-82.7890,0.355,1111122 
COMPS,ioos:station:USF.COMPS:ANC:1,2010-01-01T06:48:00Z,28.1930,-82.7890,0.331,1111122 
COMPS,ioos:station:USF.COMPS:ANC:1,2010-01-01T06:54:00Z,28.1930,-82.7890,0.313,1111122 
COMPS,ioos:station:USF.COMPS:ANC:1,2010-01-01T07:00:00Z,28.1930,-82.7890,0.292,1111122 
COMPS,ioos:station:USF.COMPS:ANC:1,2010-01-01T07:06:00Z,28.1930,-82.7890,0.264,1111122 
COMPS,ioos:station:USF.COMPS:ANC:1,2010-01-01T07:12:00Z,28.1930,-82.7890,0.241,1111122 
COMPS,ioos:station:USF.COMPS:ANC:1,2010-01-01T07:18:00Z,28.1930,-82.7890,0.218,1111122 
COMPS,ioos:station:USF.COMPS:ANC:1,2010-01-01T07:24:00Z,28.1930,-82.7890,0.188,1111122 
COMPS,ioos:station:USF.COMPS:ANC:1,2010-01-01T07:30:00Z,28.1930,-82.7890,0.159,1111122 
COMPS,ioos:station:USF.COMPS:ANC:1,2010-01-01T07:36:00Z,28.1930,-82.7890,0.136,1111122 
COMPS,ioos:station:USF.COMPS:ANC:1,2010-01-01T07:42:00Z,28.1930,-82.7890,0.11,1111122 
COMPS,ioos:station:USF.COMPS:ANC:1,2010-01-01T07:48:00Z,28.1930,-82.7890,0.079,1111122 
COMPS,ioos:station:USF.COMPS:ANC:1,2010-01-01T07:54:00Z,28.1930,-82.7890,0.056,1111122 
COMPS,ioos:station:USF.COMPS:ANC:1,2010-01-01T08:00:00Z,28.1930,-82.7890,0.026,1111122 
COMPS,ioos:station:USF.COMPS:ANC:1,2010-01-01T08:06:00Z,28.1930,-82.7890,-0.006,1111122 
COMPS,ioos:station:USF.COMPS:ANC:1,2010-01-01T08:12:00Z,28.1930,-82.7890,-0.028,1111122 
COMPS,ioos:station:USF.COMPS:ANC:1,2010-01-01T08:18:00Z,28.1930,-82.7890,-0.053,1111122 
COMPS,ioos:station:USF.COMPS:ANC:1,2010-01-01T08:24:00Z,28.1930,-82.7890,-0.082,1111122 
COMPS,ioos:station:USF.COMPS:ANC:1,2010-01-01T08:30:00Z,28.1930,-82.7890,-0.102,1111122 
COMPS,ioos:station:USF.COMPS:ANC:1,2010-01-01T08:36:00Z,28.1930,-82.7890,-0.13,1111122 
COMPS,ioos:station:USF.COMPS:ANC:1,2010-01-01T08:42:00Z,28.1930,-82.7890,-0.159,1111122 
COMPS,ioos:station:USF.COMPS:ANC:1,2010-01-01T08:48:00Z,28.1930,-82.7890,-0.189,1111122 
COMPS,ioos:station:USF.COMPS:ANC:1,2010-01-01T08:54:00Z,28.1930,-82.7890,-0.214,1111122 
COMPS,ioos:station:USF.COMPS:ANC:1,2010-01-01T09:00:00Z,28.1930,-82.7890,-0.237,1111122 
COMPS,ioos:station:USF.COMPS:ANC:1,2010-01-01T09:06:00Z,28.1930,-82.7890,-0.27,1111122 
COMPS,ioos:station:USF.COMPS:ANC:1,2010-01-01T09:12:00Z,28.1930,-82.7890,-0.295,1111122 
COMPS,ioos:station:USF.COMPS:ANC:1,2010-01-01T09:18:00Z,28.1930,-82.7890,-0.318,1111122 
COMPS,ioos:station:USF.COMPS:ANC:1,2010-01-01T09:24:00Z,28.1930,-82.7890,-0.347,1111122 
COMPS,ioos:station:USF.COMPS:ANC:1,2010-01-01T09:30:00Z,28.1930,-82.7890,-0.371,1111122 
COMPS,ioos:station:USF.COMPS:ANC:1,2010-01-01T09:36:00Z,28.1930,-82.7890,-0.392,1111122 
COMPS,ioos:station:USF.COMPS:ANC:1,2010-01-01T09:42:00Z,28.1930,-82.7890,-0.417,1111122 
COMPS,ioos:station:USF.COMPS:ANC:1,2010-01-01T09:48:00Z,28.1930,-82.7890,-0.441,1111122 
COMPS,ioos:station:USF.COMPS:ANC:1,2010-01-01T09:54:00Z,28.1930,-82.7890,-0.452,1111122 
COMPS,ioos:station:USF.COMPS:ANC:1,2010-01-01T10:00:00Z,28.1930,-82.7890,-0.457,1111122 
COMPS,ioos:station:USF.COMPS:ANC:1,2010-01-01T10:06:00Z,28.1930,-82.7890,-0.498,1111122 
COMPS,ioos:station:USF.COMPS:ANC:1,2010-01-01T10:12:00Z,28.1930,-82.7890,-0.544,1111122 
COMPS,ioos:station:USF.COMPS:ANC:1,2010-01-01T10:18:00Z,28.1930,-82.7890,-0.567,1111122 
COMPS,ioos:station:USF.COMPS:ANC:1,2010-01-01T10:24:00Z,28.1930,-82.7890,-0.583,1111122 
COMPS,ioos:station:USF.COMPS:ANC:1,2010-01-01T10:30:00Z,28.1930,-82.7890,-0.601,1111122 
COMPS,ioos:station:USF.COMPS:ANC:1,2010-01-01T10:36:00Z,28.1930,-82.7890,-0.614,1111122 
COMPS,ioos:station:USF.COMPS:ANC:1,2010-01-01T10:42:00Z,28.1930,-82.7890,-0.624,1111122 
COMPS,ioos:station:USF.COMPS:ANC:1,2010-01-01T10:48:00Z,28.1930,-82.7890,-0.64,1111122 
COMPS,ioos:station:USF.COMPS:ANC:1,2010-01-01T10:54:00Z,28.1930,-82.7890,-0.659,1111122 
COMPS,ioos:station:USF.COMPS:ANC:1,2010-01-01T11:00:00Z,28.1930,-82.7890,-0.674,1111122 
COMPS,ioos:station:USF.COMPS:ANC:1,2010-01-01T11:06:00Z,28.1930,-82.7890,-0.681,1111122 
COMPS,ioos:station:USF.COMPS:ANC:1,2010-01-01T11:12:00Z,28.1930,-82.7890,-0.674,1111122 
COMPS,ioos:station:USF.COMPS:ANC:1,2010-01-01T11:18:00Z,28.1930,-82.7890,-0.674,1111122 
COMPS,ioos:station:USF.COMPS:ANC:1,2010-01-01T11:24:00Z,28.1930,-82.7890,-0.674,1111122 
COMPS,ioos:station:USF.COMPS:ANC:1,2010-01-01T11:30:00Z,28.1930,-82.7890,-0.674,1111122 
COMPS,ioos:station:USF.COMPS:ANC:1,2010-01-01T11:36:00Z,28.1930,-82.7890,-0.674,1111122 
COMPS,ioos:station:USF.COMPS:ANC:1,2010-01-01T11:42:00Z,28.1930,-82.7890,-0.674,1111122 
COMPS,ioos:station:USF.COMPS:ANC:1,2010-01-01T11:48:00Z,28.1930,-82.7890,-0.674,1111122 
COMPS,ioos:station:USF.COMPS:ANC:1,2010-01-01T11:54:00Z,28.1930,-82.7890,-0.674,1111122 
COMPS,ioos:station:USF.COMPS:ANC:1,2010-01-01T12:00:00Z,28.1930,-82.7890,-0.674,1111122 
COMPS,ioos:station:USF.COMPS:ANC:1,2010-01-01T12:06:00Z,28.1930,-82.7890,-0.674,1111122 
COMPS,ioos:station:USF.COMPS:ANC:1,2010-01-01T12:12:00Z,28.1930,-82.7890,-0.674,1111122 
COMPS,ioos:station:USF.COMPS:ANC:1,2010-01-01T12:18:00Z,28.1930,-82.7890,-0.674,1111122 
COMPS,ioos:station:USF.COMPS:ANC:1,2010-01-01T12:24:00Z,28.1930,-82.7890,-0.674,1111122 
COMPS,ioos:station:USF.COMPS:ANC:1,2010-01-01T12:30:00Z,28.1930,-82.7890,-0.674,1111122 
COMPS,ioos:station:USF.COMPS:ANC:1,2010-01-01T12:36:00Z,28.1930,-82.7890,-0.674,1111122 
COMPS,ioos:station:USF.COMPS:ANC:1,2010-01-01T12:42:00Z,28.1930,-82.7890,-0.674,1111122 
COMPS,ioos:station:USF.COMPS:ANC:1,2010-01-01T12:48:00Z,28.1930,-82.7890,-0.674,1111122 
COMPS,ioos:station:USF.COMPS:ANC:1,2010-01-01T12:54:00Z,28.1930,-82.7890,-0.674,1111122 
COMPS,ioos:station:USF.COMPS:ANC:1,2010-01-01T13:00:00Z,28.1930,-82.7890,-0.674,1111122 
COMPS,ioos:station:USF.COMPS:ANC:1,2010-01-01T13:06:00Z,28.1930,-82.7890,-0.674,1111122 
COMPS,ioos:station:USF.COMPS:ANC:1,2010-01-01T13:12:00Z,28.1930,-82.7890,-0.674,1111122 
COMPS,ioos:station:USF.COMPS:ANC:1,2010-01-01T13:18:00Z,28.1930,-82.7890,-0.678,1111122 
COMPS,ioos:station:USF.COMPS:ANC:1,2010-01-01T13:24:00Z,28.1930,-82.7890,-0.663,1111122 
COMPS,ioos:station:USF.COMPS:ANC:1,2010-01-01T13:30:00Z,28.1930,-82.7890,-0.64,1111122 
COMPS,ioos:station:USF.COMPS:ANC:1,2010-01-01T13:36:00Z,28.1930,-82.7890,-0.615,1111122 
COMPS,ioos:station:USF.COMPS:ANC:1,2010-01-01T13:42:00Z,28.1930,-82.7890,-0.592,1111122 
COMPS,ioos:station:USF.COMPS:ANC:1,2010-01-01T13:48:00Z,28.1930,-82.7890,-0.562,1111122 
COMPS,ioos:station:USF.COMPS:ANC:1,2010-01-01T13:54:00Z,28.1930,-82.7890,-0.534,1111122 
COMPS,ioos:station:USF.COMPS:ANC:1,2010-01-01T14:00:00Z,28.1930,-82.7890,-0.503,1111122 
COMPS,ioos:station:USF.COMPS:ANC:1,2010-01-01T14:06:00Z,28.1930,-82.7890,-0.474,1111122 
COMPS,ioos:station:USF.COMPS:ANC:1,2010-01-01T14:12:00Z,28.1930,-82.7890,-0.462,1111122 
COMPS,ioos:station:USF.COMPS:ANC:1,2010-01-01T14:18:00Z,28.1930,-82.7890,-0.443,1111122 
COMPS,ioos:station:USF.COMPS:ANC:1,2010-01-01T14:24:00Z,28.1930,-82.7890,-0.406,1111122 
COMPS,ioos:station:USF.COMPS:ANC:1,2010-01-01T14:30:00Z,28.1930,-82.7890,-0.381,1111122 
COMPS,ioos:station:USF.COMPS:ANC:1,2010-01-01T14:36:00Z,28.1930,-82.7890,-0.363,1111122 
COMPS,ioos:station:USF.COMPS:ANC:1,2010-01-01T14:42:00Z,28.1930,-82.7890,-0.337,1111122 
COMPS,ioos:station:USF.COMPS:ANC:1,2010-01-01T14:48:00Z,28.1930,-82.7890,-0.307,1111122 
COMPS,ioos:station:USF.COMPS:ANC:1,2010-01-01T14:54:00Z,28.1930,-82.7890,-0.28,1111122 
COMPS,ioos:station:USF.COMPS:ANC:1,2010-01-01T15:00:00Z,28.1930,-82.7890,-0.246,1111122 
COMPS,ioos:station:USF.COMPS:ANC:1,2010-01-01T15:06:00Z,28.1930,-82.7890,-0.2,1111122 
COMPS,ioos:station:USF.COMPS:ANC:1,2010-01-01T15:12:00Z,28.1930,-82.7890,-0.167,1111122 
COMPS,ioos:station:USF.COMPS:ANC:1,2010-01-01T15:18:00Z,28.1930,-82.7890,-0.153,1111122 
COMPS,ioos:station:USF.COMPS:ANC:1,2010-01-01T15:24:00Z,28.1930,-82.7890,-0.11,1111122 
COMPS,ioos:station:USF.COMPS:ANC:1,2010-01-01T15:30:00Z,28.1930,-82.7890,-0.018,1111122 
COMPS,ioos:station:USF.COMPS:ANC:1,2010-01-01T15:36:00Z,28.1930,-82.7890,0.08,1111122 
COMPS,ioos:station:USF.COMPS:ANC:1,2010-01-01T15:42:00Z,28.1930,-82.7890,0.121,1111122 
COMPS,ioos:station:USF.COMPS:ANC:1,2010-01-01T15:48:00Z,28.1930,-82.7890,0.116,1111122 
COMPS,ioos:station:USF.COMPS:ANC:1,2010-01-01T15:54:00Z,28.1930,-82.7890,0.124,1111122 
COMPS,ioos:station:USF.COMPS:ANC:1,2010-01-01T16:00:00Z,28.1930,-82.7890,0.251,1111122 
COMPS,ioos:station:USF.COMPS:ANC:1,2010-01-01T16:06:00Z,28.1930,-82.7890,0.393,1111122 
COMPS,ioos:station:USF.COMPS:ANC:1,2010-01-01T16:12:00Z,28.1930,-82.7890,0.394,1111122 
COMPS,ioos:station:USF.COMPS:ANC:1,2010-01-01T16:18:00Z,28.1930,-82.7890,0.421,1111122 
COMPS,ioos:station:USF.COMPS:ANC:1,2010-01-01T16:24:00Z,28.1930,-82.7890,0.44,1111122 
COMPS,ioos:station:USF.COMPS:ANC:1,2010-01-01T16:30:00Z,28.1930,-82.7890,0.42,1111122 
COMPS,ioos:station:USF.COMPS:ANC:1,2010-01-01T16:36:00Z,28.1930,-82.7890,0.428,1111122 
COMPS,ioos:station:USF.COMPS:ANC:1,2010-01-01T16:42:00Z,28.1930,-82.7890,0.401,1111122 
COMPS,ioos:station:USF.COMPS:ANC:1,2010-01-01T16:48:00Z,28.1930,-82.7890,0.349,1111122 
COMPS,ioos:station:USF.COMPS:ANC:1,2010-01-01T16:54:00Z,28.1930,-82.7890,0.353,1111122 
COMPS,ioos:station:USF.COMPS:ANC:1,2010-01-01T17:00:00Z,28.1930,-82.7890,0.4,1111122 
COMPS,ioos:station:USF.COMPS:ANC:1,2010-01-01T17:06:00Z,28.1930,-82.7890,0.426,1111122 
COMPS,ioos:station:USF.COMPS:ANC:1,2010-01-01T17:12:00Z,28.1930,-82.7890,0.392,1111122 
COMPS,ioos:station:USF.COMPS:ANC:1,2010-01-01T17:18:00Z,28.1930,-82.7890,0.407,1111122 
COMPS,ioos:station:USF.COMPS:ANC:1,2010-01-01T17:24:00Z,28.1930,-82.7890,0.39,1111122 
COMPS,ioos:station:USF.COMPS:ANC:1,2010-01-01T17:30:00Z,28.1930,-82.7890,0.376,1111122 
COMPS,ioos:station:USF.COMPS:ANC:1,2010-01-01T17:36:00Z,28.1930,-82.7890,0.358,1111122 
COMPS,ioos:station:USF.COMPS:ANC:1,2010-01-01T17:42:00Z,28.1930,-82.7890,0.333,1111122 
COMPS,ioos:station:USF.COMPS:ANC:1,2010-01-01T17:48:00Z,28.1930,-82.7890,0.3,1111122 
COMPS,ioos:station:USF.COMPS:ANC:1,2010-01-01T17:54:00Z,28.1930,-82.7890,0.251,1111122 
COMPS,ioos:station:USF.COMPS:ANC:1,2010-01-01T18:00:00Z,28.1930,-82.7890,0.191,1111122 
COMPS,ioos:station:USF.COMPS:ANC:1,2010-01-01T18:06:00Z,28.1930,-82.7890,0.147,1111122 
COMPS,ioos:station:USF.COMPS:ANC:1,2010-01-01T18:12:00Z,28.1930,-82.7890,0.119,1111122 
COMPS,ioos:station:USF.COMPS:ANC:1,2010-01-01T18:18:00Z,28.1930,-82.7890,0.082,1111122 
COMPS,ioos:station:USF.COMPS:ANC:1,2010-01-01T18:24:00Z,28.1930,-82.7890,0.034,1111122 
COMPS,ioos:station:USF.COMPS:ANC:1,2010-01-01T18:30:00Z,28.1930,-82.7890,-0.007,1111122 
COMPS,ioos:station:USF.COMPS:ANC:1,2010-01-01T18:36:00Z,28.1930,-82.7890,-0.035,1111122 
COMPS,ioos:station:USF.COMPS:ANC:1,2010-01-01T18:42:00Z,28.1930,-82.7890,-0.077,1111122 
COMPS,ioos:station:USF.COMPS:ANC:1,2010-01-01T18:48:00Z,28.1930,-82.7890,-0.121,1111122 
COMPS,ioos:station:USF.COMPS:ANC:1,2010-01-01T18:54:00Z,28.1930,-82.7890,-0.134,1111122 
COMPS,ioos:station:USF.COMPS:ANC:1,2010-01-01T19:00:00Z,28.1930,-82.7890,-0.117,1111122 
COMPS,ioos:station:USF.COMPS:ANC:1,2010-01-01T19:06:00Z,28.1930,-82.7890,-0.121,1111122 
COMPS,ioos:station:USF.COMPS:ANC:1,2010-01-01T19:12:00Z,28.1930,-82.7890,-0.154,1111122 
COMPS,ioos:station:USF.COMPS:ANC:1,2010-01-01T19:18:00Z,28.1930,-82.7890,-0.171,1111122 
COMPS,ioos:station:USF.COMPS:ANC:1,2010-01-01T19:24:00Z,28.1930,-82.7890,-0.178,1111122 
COMPS,ioos:station:USF.COMPS:ANC:1,2010-01-01T19:30:00Z,28.1930,-82.7890,-0.199,1111122 
COMPS,ioos:station:USF.COMPS:ANC:1,2010-01-01T19:36:00Z,28.1930,-82.7890,-0.223,1111122 
COMPS,ioos:station:USF.COMPS:ANC:1,2010-01-01T19:42:00Z,28.1930,-82.7890,-0.214,1111122 
COMPS,ioos:station:USF.COMPS:ANC:1,2010-01-01T19:48:00Z,28.1930,-82.7890,-0.182,1111122 
COMPS,ioos:station:USF.COMPS:ANC:1,2010-01-01T19:54:00Z,28.1930,-82.7890,-0.16,1111122 
COMPS,ioos:station:USF.COMPS:ANC:1,2010-01-01T20:00:00Z,28.1930,-82.7890,-0.172,1111122 
COMPS,ioos:station:USF.COMPS:ANC:1,2010-01-01T20:06:00Z,28.1930,-82.7890,-0.18,1111122 
COMPS,ioos:station:USF.COMPS:ANC:1,2010-01-01T20:12:00Z,28.1930,-82.7890,-0.182,1111122 
COMPS,ioos:station:USF.COMPS:ANC:1,2010-01-01T20:18:00Z,28.1930,-82.7890,-0.208,1111122 
COMPS,ioos:station:USF.COMPS:ANC:1,2010-01-01T20:24:00Z,28.1930,-82.7890,-0.24,1111122 
COMPS,ioos:station:USF.COMPS:ANC:1,2010-01-01T20:30:00Z,28.1930,-82.7890,-0.256,1111122 
COMPS,ioos:station:USF.COMPS:ANC:1,2010-01-01T20:36:00Z,28.1930,-82.7890,-0.252,1111122 
COMPS,ioos:station:USF.COMPS:ANC:1,2010-01-01T20:42:00Z,28.1930,-82.7890,-0.24,1111122 
COMPS,ioos:station:USF.COMPS:ANC:1,2010-01-01T20:48:00Z,28.1930,-82.7890,-0.243,1111122 
COMPS,ioos:station:USF.COMPS:ANC:1,2010-01-01T20:54:00Z,28.1930,-82.7890,-0.243,1111122 
COMPS,ioos:station:USF.COMPS:ANC:1,2010-01-01T21:00:00Z,28.1930,-82.7890,-0.242,1111122 
COMPS,ioos:station:USF.COMPS:ANC:1,2010-01-01T21:06:00Z,28.1930,-82.7890,-0.248,1111122 
COMPS,ioos:station:USF.COMPS:ANC:1,2010-01-01T21:12:00Z,28.1930,-82.7890,-0.248,1111122 
COMPS,ioos:station:USF.COMPS:ANC:1,2010-01-01T21:18:00Z,28.1930,-82.7890,-0.24,1111122 
COMPS,ioos:station:USF.COMPS:ANC:1,2010-01-01T21:24:00Z,28.1930,-82.7890,-0.24,1111122 
COMPS,ioos:station:USF.COMPS:ANC:1,2010-01-01T21:30:00Z,28.1930,-82.7890,-0.239,1111122 
COMPS,ioos:station:USF.COMPS:ANC:1,2010-01-01T21:36:00Z,28.1930,-82.7890,-0.229,1111122 
COMPS,ioos:station:USF.COMPS:ANC:1,2010-01-01T21:42:00Z,28.1930,-82.7890,-0.222,1111122 
COMPS,ioos:station:USF.COMPS:ANC:1,2010-01-01T21:48:00Z,28.1930,-82.7890,-0.229,1111122 
COMPS,ioos:station:USF.COMPS:ANC:1,2010-01-01T21:54:00Z,28.1930,-82.7890,-0.231,1111122 
COMPS,ioos:station:USF.COMPS:ANC:1,2010-01-01T22:00:00Z,28.1930,-82.7890,-0.222,1111122 
COMPS,ioos:station:USF.COMPS:ANC:1,2010-01-01T22:06:00Z,28.1930,-82.7890,-0.217,1111122 
COMPS,ioos:station:USF.COMPS:ANC:1,2010-01-01T22:12:00Z,28.1930,-82.7890,-0.22,1111122 
COMPS,ioos:station:USF.COMPS:ANC:1,2010-01-01T22:18:00Z,28.1930,-82.7890,-0.232,1111122 
COMPS,ioos:station:USF.COMPS:ANC:1,2010-01-01T22:24:00Z,28.1930,-82.7890,-0.249,1111122 
COMPS,ioos:station:USF.COMPS:ANC:1,2010-01-01T22:30:00Z,28.1930,-82.7890,-0.252,1111122 
COMPS,ioos:station:USF.COMPS:ANC:1,2010-01-01T22:36:00Z,28.1930,-82.7890,-0.244,1111122 
COMPS,ioos:station:USF.COMPS:ANC:1,2010-01-01T22:42:00Z,28.1930,-82.7890,-0.236,1111122 
COMPS,ioos:station:USF.COMPS:ANC:1,2010-01-01T22:48:00Z,28.1930,-82.7890,-0.235,1111122 
COMPS,ioos:station:USF.COMPS:ANC:1,2010-01-01T22:54:00Z,28.1930,-82.7890,-0.229,1111122 
COMPS,ioos:station:USF.COMPS:ANC:1,2010-01-01T23:00:00Z,28.1930,-82.7890,-0.218,1111122 
COMPS,ioos:station:USF.COMPS:ANC:1,2010-01-01T23:06:00Z,28.1930,-82.7890,-0.207,1111122 
COMPS,ioos:station:USF.COMPS:ANC:1,2010-01-01T23:12:00Z,28.1930,-82.7890,-0.193,1111122 
COMPS,ioos:station:USF.COMPS:ANC:1,2010-01-01T23:18:00Z,28.1930,-82.7890,-0.191,1111122 
COMPS,ioos:station:USF.COMPS:ANC:1,2010-01-01T23:24:00Z,28.1930,-82.7890,-0.19,1111122 
COMPS,ioos:station:USF.COMPS:ANC:1,2010-01-01T23:30:00Z,28.1930,-82.7890,-0.19,1111122 
COMPS,ioos:station:USF.COMPS:ANC:1,2010-01-01T23:36:00Z,28.1930,-82.7890,-0.188,1111122 
COMPS,ioos:station:USF.COMPS:ANC:1,2010-01-01T23:42:00Z,28.1930,-82.7890,-0.186,1111122 
COMPS,ioos:station:USF.COMPS:ANC:1,2010-01-01T23:48:00Z,28.1930,-82.7890,-0.179,1111122 
COMPS,ioos:station:USF.COMPS:ANC:1,2010-01-01T23:54:00Z,28.1930,-82.7890,-0.163,1111122 
COMPS,ioos:station:USF.COMPS:ANC:1,2010-01-02T00:00:00Z,28.1930,-82.7890,-0.135,1111122 
COMPS,ioos:station:USF.COMPS:ANC:1,2010-01-02T00:06:00Z,28.1930,-82.7890,-0.106,1111122 
COMPS,ioos:station:USF.COMPS:ANC:1,2010-01-02T00:12:00Z,28.1930,-82.7890,-0.088,1111122 
COMPS,ioos:station:USF.COMPS:ANC:1,2010-01-02T00:18:00Z,28.1930,-82.7890,-0.065,1111122 
COMPS,ioos:station:USF.COMPS:ANC:1,2010-01-02T00:24:00Z,28.1930,-82.7890,-0.038,1111122 
COMPS,ioos:station:USF.COMPS:ANC:1,2010-01-02T00:30:00Z,28.1930,-82.7890,-0.001,1111122 
COMPS,ioos:station:USF.COMPS:ANC:1,2010-01-02T00:36:00Z,28.1930,-82.7890,0.023,1111122 
COMPS,ioos:station:USF.COMPS:ANC:1,2010-01-02T00:42:00Z,28.1930,-82.7890,0.032,1111122 
COMPS,ioos:station:USF.COMPS:ANC:1,2010-01-02T00:48:00Z,28.1930,-82.7890,0.049,1111122 
COMPS,ioos:station:USF.COMPS:ANC:1,2010-01-02T00:54:00Z,28.1930,-82.7890,0.067,1111122 
COMPS,ioos:station:USF.COMPS:ANC:1,2010-01-02T01:00:00Z,28.1930,-82.7890,0.076,1111122 
COMPS,ioos:station:USF.COMPS:ANC:1,2010-01-02T01:06:00Z,28.1930,-82.7890,0.096,1111122 
COMPS,ioos:station:USF.COMPS:ANC:1,2010-01-02T01:12:00Z,28.1930,-82.7890,0.11,1111122 
COMPS,ioos:station:USF.COMPS:ANC:1,2010-01-02T01:18:00Z,28.1930,-82.7890,0.119,1111122 
COMPS,ioos:station:USF.COMPS:ANC:1,2010-01-02T01:24:00Z,28.1930,-82.7890,0.126,1111122 
COMPS,ioos:station:USF.COMPS:ANC:1,2010-01-02T01:30:00Z,28.1930,-82.7890,0.133,1111122 
COMPS,ioos:station:USF.COMPS:ANC:1,2010-01-02T01:36:00Z,28.1930,-82.7890,0.139,1111122 
COMPS,ioos:station:USF.COMPS:ANC:1,2010-01-02T01:42:00Z,28.1930,-82.7890,0.147,1111122 
COMPS,ioos:station:USF.COMPS:ANC:1,2010-01-02T01:48:00Z,28.1930,-82.7890,0.163,1111122 
COMPS,ioos:station:USF.COMPS:ANC:1,2010-01-02T01:54:00Z,28.1930,-82.7890,0.164,1111122 
COMPS,ioos:station:USF.COMPS:ANC:1,2010-01-02T02:00:00Z,28.1930,-82.7890,0.151,1111122 
COMPS,ioos:station:USF.COMPS:ANC:1,2010-01-02T02:06:00Z,28.1930,-82.7890,0.151,1111122 
COMPS,ioos:station:USF.COMPS:ANC:1,2010-01-02T02:12:00Z,28.1930,-82.7890,0.162,1111122 
COMPS,ioos:station:USF.COMPS:ANC:1,2010-01-02T02:18:00Z,28.1930,-82.7890,0.164,1111122 
COMPS,ioos:station:USF.COMPS:ANC:1,2010-01-02T02:24:00Z,28.1930,-82.7890,0.157,1111122 
COMPS,ioos:station:USF.COMPS:ANC:1,2010-01-02T02:30:00Z,28.1930,-82.7890,0.149,1111122 
COMPS,ioos:station:USF.COMPS:ANC:1,2010-01-02T02:36:00Z,28.1930,-82.7890,0.153,1111122 
COMPS,ioos:station:USF.COMPS:ANC:1,2010-01-02T02:42:00Z,28.1930,-82.7890,0.162,1111122 
COMPS,ioos:station:USF.COMPS:ANC:1,2010-01-02T02:48:00Z,28.1930,-82.7890,0.17,1111122 
COMPS,ioos:station:USF.COMPS:ANC:1,2010-01-02T02:54:00Z,28.1930,-82.7890,0.186,1111122 